Tracking 19193 objects as of 22-Jun-2018
HD Live streaming from Space Station
objects crossing your sky now

COSMOS 1555 (GLONASS)

Track COSMOS 1555 (GLONASS) now!
COSMOS 1555 (GLONASS) is classified as:


NORAD ID: 14978
Int'l Code: 1984-047B
Perigee: 19,107.0 km
Apogee: 19,167.2 km
Inclination: 66.0 °
Period: 675.7 minutes
Semi major axis: 25508 km
RCS: 0.5602 m2 (medium)
Launch date: May 19, 1984
Source: Commonwealth of Independent States (former USSR) (CIS)
Launch site: TYURATAM MISSILE AND SPACE COMPLEX (TTMTR)
SV:
aabbcc
Your satellite tracking list
Your tracking list is empty




NASA's NSSDC Master Catalog

Two Line Element Set (TLE):
1 14978U 84047B   18172.36262694 -.00000075  00000-0  00000+0 0  9991
2 14978  66.0452  63.8795 0011793 187.0086 344.8591  2.13100797237346
Source of the keplerian elements: AFSPC